Location: Unspecified
(40.7945°N, 0.0000°E)
Time: 13:04:20
(UTC+00:00)

deb Explorer IX - Pass Details

Date: 24 June 2021
Orbit: 542 x 1095 km, 38.8° (Epoch: 27 July)

Event Time Altitude Azimuth Distance (km) Brightness Sun altitude
Exits shadow 03:41:25 - 210° (SSW) 2,157 ? -8.1°
Reaches altitude 10° 03:41:47 10° 208° (SSW) 2,041 ? -8.1°
Maximum altitude 03:45:29 24° 155° (SSE) 1,265 ? -7.5°
Drops below altitude 10° 03:48:55 10° 101° (E) 1,866 ? -7.1°
Sets 03:51:25 0° 87° (E) 2,724 ? -6.7°
